Regional Weather Roundup
Issued by NWS Goodland, KS

Home | Current Version | Previous Version | Text Only | Print | Product List | Glossary Off
Versions: 1 2 3 4 5 6 7 8 9 10 11 12 13 14 15 16 17 18 19 20 21 22 23 24 25 26 27 28 29 30 31 32 33 34 35 36 37 38 39 40 41 42 43 44 45 46 47 48 49 50

000
ASUS43 KGLD 311159
RWRGLD

GOODLAND FORECAST AREA HOURLY WEATHER ROUNDUP
NATIONAL WEATHER SERVICE GOODLAND KS
600 AM MDT FRI JUL 31 2015

...OFFICIAL OBSERVATIONS...

CITY           SKY/WX    TMP DP  RH WIND       PRES   REMARKS
GOODLAND KS    FOG       57  57 100 N3        30.28S VSB 3/4
HILL CITY KS   CLEAR     67  65  93 CALM      30.22R
IMPERIAL NEB   CLEAR     58  56  93 SW3       30.25R
MCCOOK NEB     CLEAR     64  62  93 CALM      30.22R
AKRON CO       CLEAR     58  55  90 SE7       30.32S
BURLINGTON CO  CLEAR     60  57  89 CALM      30.31S
LIMON CO       CLEAR     50  50 100 N3        30.36R
$$

...UNOFFICIAL OBSERVATIONS...

CITY           SKY/WX    TMP DP  RH WIND       PRES   REMARKS
SHARON SPRINGS   N/A     63  62  95 CALM        N/A
KIT CARSON CO    N/A     60  56  87 MISG        N/A
YUMA CO          N/A     58  56  92 CALM        N/A
$$



USA.gov is the U.S. government's official web portal to all federal, state and local government web resources and services.